Regional Weather Roundup
Issued by NWS

Home | Current Version | Previous Version | Text Only | Print | Product List | Glossary On
Versions: 1 2 3 4 5 6 7 8 9 10 11 12 13 14 15 16 17 18 19 20 21 22 23 24 25 26 27 28 29 30 31 32 33 34 35 36 37 38 39 40 41 42 43 44 45 46 47 48 49 50
000
ASUS46 KSEW 030810
RWRWA

WASHINGTON REGIONAL WEATHER ROUNDUP
NATIONAL WEATHER SERVICE SEATTLE WA
100 AM PDT FRI JUL 03 2015

NOTE:"FAIR" INDICATES FEW OR NO CLOUDS BELOW 12,000 FEET WITH NO
SIGNIFICANT WEATHER AND/OR OBSTRUCTIONS TO VISIBILITY.

WAZ505-507>509-030900-
SEATTLE, TACOMA, EVERETT, AND VICINITY

CITY           SKY/WX    TMP DP  RH WIND       PRES   REMARKS
EVERETT        CLEAR     69  50  50 CALM      29.97S
BOEING FIELD   CLEAR     75  54  47 NW5       29.94R
RENTON         CLEAR     74  59  59 NW3       29.93S
SEATAC AIRPORT PTCLDY    78  53  41 NE7       29.95S
JBLM-MCCHORD   CLEAR     67  55  66 CALM      29.94S
PUYALLUP       FAIR      64  59  82 CALM      29.96S
BREMERTON      CLEAR     63  54  72 CALM      29.98S
JBLM-FT LEWIS  CLEAR     72  57  58 W6        29.94S
TACOMA NARROWS CLEAR     72  52  49 CALM      29.94S
$$

WAZ001-503-506-510-514-515-030900-
NORTH INTERIOR

CITY           SKY/WX    TMP DP  RH WIND       PRES   REMARKS
BELLINGHAM     MOCLDY    73  53  49 VRB5      29.95R
FRIDAY HARBOR    N/A     54  51  90 CALM      29.95S
EASTSOUND      PTCLDY    63  55  77 CALM      29.93R
PORT ANGELES   CLEAR     56  52  86 CALM      29.95S
PORT TOWNSEND  FAIR      57  55  94 CALM      29.95S
NAS WHIDBEY    PTCLDY    59  52  77 SE5       29.99S
ARLINGTON      CLEAR     64  52  63 CALM      29.97R
BURLINGTON     CLEAR     63  57  82 CALM      29.95S
$$

WAZ020-022-039-040-504-511-512-030900-
SOUTHWEST INTERIOR

CITY           SKY/WX    TMP DP  RH WIND       PRES   REMARKS
SHELTON        CLEAR     62  54  74 W7        29.94S
OLYMPIA        CLEAR     66  58  75 CALM      29.95R
CHEHALIS       FAIR      64  59  82 CALM      29.96R
KELSO          CLEAR     66  54  63 N6        29.99S
VANCOUVER      CLEAR     75  52  44 CALM      29.91R
SCAPPOOSE, OR  CLEAR     65  53  65 CALM      29.91R
PORTLAND, OR   CLEAR     75  55  49 N5        29.92R
$$

WAZ021-516-517-030900-
WASHINGTON COAST

CITY           SKY/WX    TMP DP  RH WIND       PRES   REMARKS
FORKS          CLEAR     53  53 100 SE3       29.98S
HOQUIAM        MOCLDY    58  55  90 W6        29.99R
ASTORIA, OR    CLOUDY    60  57  89 W7        30.00S
$$

WAZ019-023-024-040-518-519-030900-
CASCADE MOUNTAINS AND COLUMBIA GORGE

CITY           SKY/WX    TMP DP  RH WIND       PRES   REMARKS
TROUTDALE, OR  CLEAR     72  57  59 CALM      29.91R
THE DALLES, OR CLEAR     83  54  36 NW12      29.82R
$$

WAZ026-027-041>044-520-521-030900-
EAST SLOPES

CITY           SKY/WX    TMP DP  RH WIND       PRES   REMARKS
OMAK           CLEAR     75  50  41 NW7       29.87R
WENATCHEE      CLEAR     85  47  26 NW9       29.87S
ELLENSBURG     CLEAR     77  49  37 NW17      29.92S
YAKIMA         CLEAR     85  44  23 NW12      29.88S
$$

WAZ028-034-035-030900-
COLUMBIA BASIN

CITY           SKY/WX    TMP DP  RH WIND       PRES   REMARKS
EPHRATA        CLEAR     86  45  23 NW13      29.83S
MOSES LAKE     CLEAR     78  53  41 E3        29.84S
PASCO          CLEAR     75  62  64 S7        29.81R
HERMISTON, OR  CLEAR     80  51  36 S9        29.81R
$$

WAZ036>038-030900-
NORTHEAST WASHINGTON

CITY           SKY/WX    TMP DP  RH WIND       PRES   REMARKS
SPOKANE GEIGER PTCLDY    73  41  31 W6        29.91S
SPOKANE FELTS  CLEAR     73  50  44 NE5       29.90S
FAIRCHILD AFB  CLEAR     74  39  28 W6        29.92S
COEURDALENE,ID CLEAR     64  52  63 NE6       29.92R
DEER PARK      CLEAR     60  50  69 CALM      29.91S
$$

WAZ029>033-030900-
SOUTHEAST WASHINGTON

CITY           SKY/WX    TMP DP  RH WIND       PRES   REMARKS
PULLMAN        CLEAR     61  50  67 E3        29.95S
LEWISTON, ID   CLEAR     80  40  23 S5        29.85S
WALLA WALLA    CLEAR     79  46  31 NE9       29.84R
PENDLETON, OR  CLEAR     75  39  27 S5        29.87R
$$


USA.gov is the U.S. government's official web portal to all federal, state and local government web resources and services.